N29YL KSAN-KSNA

Flight info

Callsign N29YL
Flight time 0h 28m
Altitude 12000
Route HURSI V23 BALBO
Aircraft BE9L/L-VGDW/C

Departure

Time 2026-04-23 02:45
Airport San Diego International Airport (KSAN)

Arrival

Time 2026-04-23 03:14
Airport John Wayne Orange County International Airport (KSNA)
Time Latitude Longitude Altitude Speed Heading
2026-04-23 02:34 32.73427 -117.18525 20 ft 0 kts 196°
2026-04-23 02:41 32.73408 -117.18532 20 ft 8 kts 196°
2026-04-23 02:41 32.73389 -117.18538 20 ft 0 kts 196°
2026-04-23 02:42 32.73371 -117.18538 20 ft 8 kts 152°
2026-04-23 02:42 32.73340 -117.18430 20 ft 18 kts 106°
2026-04-23 02:42 32.73297 -117.18250 20 ft 26 kts 105°
2026-04-23 02:42 32.73241 -117.18017 20 ft 31 kts 109°
2026-04-23 02:43 32.73176 -117.17758 20 ft 34 kts 105°
2026-04-23 02:43 32.73096 -117.17551 20 ft 15 kts 140°
2026-04-23 02:43 32.73090 -117.17546 20 ft 0 kts 144°
2026-04-23 02:43 32.73061 -117.17526 20 ft 10 kts 162°
2026-04-23 02:44 32.73025 -117.17606 20 ft 11 kts 285°
2026-04-23 02:44 32.73027 -117.17611 20 ft 0 kts 285°
2026-04-23 02:45 32.73066 -117.17772 20 ft 62 kts 286°
2026-04-23 02:45 32.73239 -117.18504 68 ft 111 kts 287°
2026-04-23 02:45 32.73458 -117.19426 397 ft 120 kts 289°
2026-04-23 02:45 32.73721 -117.20364 859 ft 119 kts 291°
2026-04-23 02:46 32.74100 -117.21210 1268 ft 123 kts 309°
2026-04-23 02:46 32.74636 -117.22057 1527 ft 134 kts 304°
2026-04-23 02:46 32.75174 -117.22988 1765 ft 143 kts 302°
2026-04-23 02:46 32.75752 -117.24035 2010 ft 156 kts 301°
2026-04-23 02:47 32.76351 -117.25140 2263 ft 164 kts 301°
2026-04-23 02:47 32.76978 -117.26308 2516 ft 169 kts 300°
2026-04-23 02:47 32.77612 -117.27492 2764 ft 173 kts 300°
2026-04-23 02:47 32.78259 -117.28704 3014 ft 175 kts 300°
2026-04-23 02:48 32.78917 -117.29937 3263 ft 177 kts 300°
2026-04-23 02:48 32.79574 -117.31169 3511 ft 178 kts 299°
2026-04-23 02:48 32.80309 -117.32372 3761 ft 179 kts 303°
2026-04-23 02:48 32.81065 -117.33552 4009 ft 180 kts 303°
2026-04-23 02:49 32.81818 -117.34720 4254 ft 181 kts 303°
2026-04-23 02:49 32.82584 -117.35907 4503 ft 181 kts 303°
2026-04-23 02:49 32.83351 -117.37098 4751 ft 182 kts 303°
2026-04-23 02:49 32.84125 -117.38297 5002 ft 182 kts 303°
2026-04-23 02:50 32.84896 -117.39494 5251 ft 183 kts 303°
2026-04-23 02:50 32.85672 -117.40698 5501 ft 183 kts 303°
2026-04-23 02:50 32.86445 -117.41898 5749 ft 184 kts 303°
2026-04-23 02:50 32.87219 -117.43099 5998 ft 184 kts 303°
2026-04-23 02:51 32.87999 -117.44312 6248 ft 185 kts 302°
2026-04-23 02:51 32.88788 -117.45538 6501 ft 185 kts 302°
2026-04-23 02:51 32.89567 -117.46749 6749 ft 186 kts 302°
2026-04-23 02:51 32.90351 -117.47968 6999 ft 186 kts 302°
2026-04-23 02:52 32.91145 -117.49202 7252 ft 187 kts 303°
2026-04-23 02:52 32.91928 -117.50421 7501 ft 187 kts 303°
2026-04-23 02:52 32.92718 -117.51651 7752 ft 188 kts 303°
2026-04-23 02:52 32.93520 -117.52900 7941 ft 192 kts 303°
2026-04-23 02:53 32.94350 -117.54194 7973 ft 203 kts 303°
2026-04-23 02:53 32.95225 -117.55557 7977 ft 211 kts 303°
2026-04-23 02:53 32.96133 -117.56971 7976 ft 216 kts 303°
2026-04-23 02:53 32.97024 -117.58360 7975 ft 220 kts 304°
2026-04-23 02:54 32.97960 -117.59819 7975 ft 222 kts 304°
2026-04-23 02:54 32.98897 -117.61281 7974 ft 224 kts 304°
2026-04-23 02:54 32.99835 -117.62745 7974 ft 225 kts 304°
2026-04-23 02:54 33.00794 -117.64242 7974 ft 226 kts 304°
2026-04-23 02:55 33.01744 -117.65725 7975 ft 226 kts 303°
2026-04-23 02:55 33.02697 -117.67215 7975 ft 227 kts 303°
2026-04-23 02:55 33.03656 -117.68715 7975 ft 227 kts 303°
2026-04-23 02:55 33.04614 -117.70212 7974 ft 226 kts 303°
2026-04-23 02:56 33.05557 -117.71687 7973 ft 222 kts 303°
2026-04-23 02:56 33.06541 -117.73107 7966 ft 222 kts 316°
2026-04-23 02:56 33.07711 -117.74300 7974 ft 221 kts 317°
2026-04-23 02:56 33.08873 -117.75485 7974 ft 220 kts 316°
2026-04-23 02:57 33.10030 -117.76664 7974 ft 219 kts 316°
2026-04-23 02:57 33.11188 -117.77843 7970 ft 219 kts 316°
2026-04-23 02:57 33.12347 -117.79022 7970 ft 218 kts 316°
2026-04-23 02:57 33.13507 -117.80203 7971 ft 218 kts 316°
2026-04-23 02:58 33.14664 -117.81381 7971 ft 218 kts 317°
2026-04-23 02:58 33.15815 -117.82552 7972 ft 218 kts 317°
2026-04-23 02:58 33.16969 -117.83729 7973 ft 218 kts 317°
2026-04-23 02:58 33.18116 -117.84898 7974 ft 218 kts 317°
2026-04-23 02:59 33.19288 -117.86041 7966 ft 220 kts 327°
2026-04-23 02:59 33.20772 -117.86543 7979 ft 220 kts 347°
2026-04-23 02:59 33.22252 -117.86909 7978 ft 220 kts 348°
2026-04-23 02:59 33.23755 -117.87280 7979 ft 221 kts 348°
2026-04-23 03:00 33.25271 -117.87656 7980 ft 221 kts 348°
2026-04-23 03:00 33.26775 -117.88031 7980 ft 221 kts 348°
2026-04-23 03:00 33.28265 -117.88402 7981 ft 221 kts 348°
2026-04-23 03:00 33.29783 -117.88779 7982 ft 221 kts 348°
2026-04-23 03:01 33.31286 -117.89153 7982 ft 221 kts 348°
2026-04-23 03:01 33.32781 -117.89526 7982 ft 221 kts 348°
2026-04-23 03:01 33.34289 -117.89902 7982 ft 221 kts 348°
2026-04-23 03:01 33.35791 -117.90276 7982 ft 221 kts 348°
2026-04-23 03:02 33.37297 -117.90652 7962 ft 222 kts 348°
2026-04-23 03:02 33.38820 -117.91043 7886 ft 225 kts 345°
2026-04-23 03:02 33.40330 -117.91613 7672 ft 233 kts 342°
2026-04-23 03:02 33.41916 -117.92198 7346 ft 242 kts 342°
2026-04-23 03:03 33.43535 -117.92788 7026 ft 247 kts 342°
2026-04-23 03:03 33.45198 -117.93391 6701 ft 250 kts 342°
2026-04-23 03:03 33.46862 -117.93996 6377 ft 251 kts 342°
2026-04-23 03:03 33.48532 -117.94603 6098 ft 250 kts 342°
2026-04-23 03:04 33.50196 -117.95208 5819 ft 249 kts 341°
2026-04-23 03:04 33.51839 -117.95806 5570 ft 247 kts 341°
2026-04-23 03:04 33.53482 -117.96405 5337 ft 245 kts 341°
2026-04-23 03:04 33.55182 -117.96511 5073 ft 247 kts
2026-04-23 03:05 33.56844 -117.96297 4980 ft 240 kts
2026-04-23 03:05 33.58450 -117.96086 4957 ft 218 kts
2026-04-23 03:05 33.59885 -117.95896 4952 ft 197 kts
2026-04-23 03:05 33.61173 -117.95726 4951 ft 180 kts
2026-04-23 03:06 33.62378 -117.95567 4956 ft 172 kts
2026-04-23 03:06 33.63597 -117.95406 4964 ft 182 kts
2026-04-23 03:06 33.64884 -117.95236 4964 ft 190 kts
2026-04-23 03:06 33.66230 -117.95058 4964 ft 197 kts
2026-04-23 03:07 33.67598 -117.94877 4962 ft 199 kts
2026-04-23 03:07 33.68962 -117.94696 4962 ft 199 kts
2026-04-23 03:07 33.70264 -117.94224 5037 ft 195 kts 30°
2026-04-23 03:07 33.71471 -117.93464 5056 ft 196 kts 29°
2026-04-23 03:08 33.72679 -117.92695 5057 ft 197 kts 28°
2026-04-23 03:08 33.73901 -117.91930 5033 ft 200 kts 28°
2026-04-23 03:08 33.75152 -117.91146 4899 ft 207 kts 28°
2026-04-23 03:08 33.76454 -117.90332 4684 ft 214 kts 28°
2026-04-23 03:09 33.77772 -117.89488 4434 ft 217 kts 33°
2026-04-23 03:09 33.78762 -117.88129 4140 ft 219 kts 62°
2026-04-23 03:09 33.79151 -117.86441 3541 ft 210 kts 89°
2026-04-23 03:09 33.78946 -117.84849 2960 ft 175 kts 113°
2026-04-23 03:10 33.78389 -117.83697 2348 ft 153 kts 133°
2026-04-23 03:10 33.77633 -117.82890 1737 ft 141 kts 150°
2026-04-23 03:10 33.76822 -117.82433 1414 ft 115 kts 167°
2026-04-23 03:10 33.76090 -117.82264 1397 ft 111 kts 179°
2026-04-23 03:11 33.75337 -117.82292 1380 ft 104 kts 191°
2026-04-23 03:11 33.74650 -117.82495 1378 ft 99 kts 203°
2026-04-23 03:11 33.73994 -117.82845 1295 ft 112 kts 208°
2026-04-23 03:11 33.73242 -117.83294 1162 ft 126 kts 209°
2026-04-23 03:12 33.72464 -117.83781 999 ft 121 kts 210°
2026-04-23 03:12 33.71762 -117.84225 846 ft 108 kts 210°
2026-04-23 03:12 33.71124 -117.84629 709 ft 100 kts 210°
2026-04-23 03:12 33.70514 -117.85017 585 ft 100 kts 211°
2026-04-23 03:13 33.69882 -117.85418 458 ft 105 kts 210°
2026-04-23 03:13 33.69227 -117.85833 320 ft 108 kts 210°
2026-04-23 03:13 33.68567 -117.86252 177 ft 106 kts 210°
2026-04-23 03:13 33.67975 -117.86629 59 ft 70 kts 208°
2026-04-23 03:14 33.67833 -117.86727 59 ft 8 kts 205°
2026-04-23 03:14 33.67731 -117.86661 59 ft 22 kts 119°
2026-04-23 03:14 33.67720 -117.86636 59 ft 0 kts 118°
2026-04-23 03:14 33.67706 -117.86606 59 ft 10 kts 118°
2026-04-23 03:15 33.67645 -117.86508 59 ft 18 kts 176°
2026-04-23 03:15 33.67586 -117.86539 59 ft 0 kts 205°
2026-04-23 03:15 33.67569 -117.86549 59 ft 8 kts 205°
2026-04-23 03:16 33.67489 -117.86597 59 ft 17 kts 208°
2026-04-23 03:16 33.67372 -117.86679 59 ft 15 kts 238°
2026-04-23 03:16 33.67387 -117.86754 59 ft 0 kts 297°
2026-04-23 03:17 33.67404 -117.86791 59 ft 10 kts 298°
2026-04-23 03:17 33.67482 -117.86864 59 ft 19 kts 344°
2026-04-23 03:17 33.67506 -117.86871 59 ft 0 kts 344°
2026-04-23 03:17 33.67545 -117.86894 59 ft 11 kts 324°
2026-04-23 03:18 33.67607 -117.86997 59 ft 19 kts 292°
2026-04-23 03:18 33.67662 -117.87136 59 ft 19 kts 288°
2026-04-23 03:18 33.67658 -117.87114 59 ft 0 kts 117°
2026-04-23 03:20 33.67581 -117.87108 59 ft 0 kts 201°
2026-04-23 03:32 33.67570 -117.87105 59 ft 6 kts 126°
2026-04-23 03:32 33.67565 -117.87032 59 ft 15 kts 27°
2026-04-23 03:32 33.67633 -117.86988 59 ft 0 kts 31°